Regional Weather Roundup
Issued by NWS

Home | Current Version | Previous Version | Text Only | Print | Product List | Glossary Off
Versions: 1 2 3 4 5 6 7 8 9 10 11 12 13 14 15 16 17 18 19 20 21 22 23 24 25 26 27 28 29 30 31 32 33 34 35 36 37 38 39 40 41 42 43 44 45 46 47 48 49 50

000
ASUS43 KIND 302059
RWRIN

WEATHER ROUNDUP FOR INDIANA
NATIONAL WEATHER SERVICE INDIANAPOLIS IN
500 PM EDT THU JUL 30 2015

NOTE: "FAIR" INDICATES FEW OR NO CLOUDS BELOW 12,000 FEET WITH NO
SIGNIFICANT WEATHER AND/OR OBSTRUCTIONS TO VISIBILITY.

* - STATION DOES NOT REPORT WEATHER SUCH AS PRECIPITATION OR FOG.

+ - STATION NOT QUALITY CONTROLLED BY THE NATIONAL WEATHER SERVICE.
    USE DATA WITH CAUTION...ESPECIALLY DEWPOINT AND RELATIVE
    HUMIDITY OBSERVATIONS.

INZ001>003-010>013-019-020-302200-
NORTHWEST INDIANA

CITY           SKY/WX    TMP DP  RH WIND       PRES   REMARKS
GARY /AIRPORT/ MOSUNNY   88  52  29 W12G28    30.04F
KNOX *+        SUNNY     84  52  32 NW10      30.03F
MONTICELLO +   SUNNY     85  57  39 NW12      30.05F
RENSSELAER +   SUNNY     84  55  37 W12       30.06F

$$

LMZ046-743>745-302200-
SOUTHERN LAKE MICHIGAN

STATION/POSITION TIME  TEMP    WIND        PRES    WAVE
                       AIR SEA DIR/SP/G            HT
                 (UTC) (F)     (DEG/KT/KT) (MB)    (FT)
BURNS HARBOR     2000   81      40/  1/  2 1017.6F
MICHIGAN CITY    2000   79     210/  5/  5   N/A
5NW MICH CITY    2000   77 75  220/  4/  6   N/A     1

$$

INZ004-005-014>016-021>024-302200-
NORTH CENTRAL INDIANA

CITY           SKY/WX    TMP DP  RH WIND       PRES   REMARKS
ELKHART        SUNNY     84  52  32 NW16      30.04F
GOSHEN         SUNNY     82  57  42 NW12G21   30.04S
SOUTH BEND     SUNNY     85  54  34 NW14      30.05S
WARSAW +       SUNNY     82  55  39 W13       30.05S

$$

INZ006>009-017-018-025>027-302200-
NORTHEAST INDIANA

CITY           SKY/WX    TMP DP  RH WIND       PRES   REMARKS
ANGOLA *+      SUNNY     84  57  39 NW12      30.02F
FORT WAYNE     MOSUNNY   84  54  35 NW9       30.04F

$$

INZ028-029-035-036-043>045-051>053-302200-
WEST CENTRAL INDIANA

CITY           SKY/WX    TMP DP  RH WIND       PRES   REMARKS
CRAWFORDSVL +  SUNNY     82  52  35 W10         N/A
GREENCASTLE +  SUNNY     82  50  32 NW9G16    30.09F
LAFAYETTE      SUNNY     84  57  39 NW10      30.06F
TERRE HAUTE    SUNNY     86  58  38 NW13      30.09F

$$

INZ030>032-037>040-046>048-054>057-064-065-302200-
CENTRAL INDIANA

CITY           SKY/WX    TMP DP  RH WIND       PRES   REMARKS
COLUMBUS       MOSUNNY   84  48  28 NW12G17   30.08
FRANKFORT +    SUNNY     84  58  40 W12       30.09F
INDIANAPOLIS   MOSUNNY   85  54  34 NW16      30.08S
-EAGLE CREEK   SUNNY     84  57  39 NW13      30.07F
KOKOMO *+      MOSUNNY   84  55  37 NW15G21   30.06S
MT COMFORT *+  SUNNY     84  46  26 NW8       30.08F
SHELBYVILLE    MOSUNNY   86  61  42 NW13      30.07F

$$

INZ033-034-041-042-049-050-058-059-302200-
EAST CENTRAL INDIANA

CITY           SKY/WX    TMP DP  RH WIND       PRES   REMARKS
MUNCIE         MOSUNNY   83  57  41 NW13      30.06F

$$

INZ060-061-067>069-081>083-085>088-302200-
SOUTHWEST INDIANA

CITY           SKY/WX    TMP DP  RH WIND       PRES   REMARKS
EVANSVILLE     SUNNY     88  58  36 NW8       30.10F
HUNTINGBURG *+ SUNNY     86  61  42 N9G17     30.09F

$$

INZ062-063-066-070>080-084-089>092-302200-
SOUTH CENTRAL AND SOUTHEAST INDIANA

CITY           SKY/WX    TMP DP  RH WIND       PRES   REMARKS
BLOOMINGTON    MOSUNNY   85  60  42 VRB6      30.09F
MADISON *+     SUNNY     84  54  34 W6        30.09F
SEYMOUR +      SUNNY     86  57  37 NW12      30.07F

$$




USA.gov is the U.S. government's official web portal to all federal, state and local government web resources and services.